IK0AOC Weather Reports


time (UTC)temp
F
wind
direction
speed
knots
gust
knots
rain 1hr
in
rain 24hr
in
rain mn
in
humidity
%
barometer
mb
20260507073505 66 99 4.3 10.4 0.00 0.05 0.02 70 1013.9
20260507073008 68 113 0.9 7.0 0.00 0.05 0.02 71 1013.8
20260507072505 67 188 0.9 4.3 0.00 0.05 0.02 71 1013.8
20260507070505 66 127 0.0 0.9 0.00 0.05 0.02 74 1014.0
20260507070011 65 139 0.0 6.1 0.00 0.05 0.02 78 1013.9
20260507065005 65 134 0.0 7.0 0.00 0.05 0.02 76 1013.9
20260507064504 65 202 0.0 2.6 0.00 0.05 0.02 76 1013.9
20260507064006 65 204 0.9 7.0 0.00 0.05 0.02 76 1013.9
20260507063008 64 94 0.0 0.0 0.00 0.05 0.02 79 1013.8
20260507062505 64 92 0.0 2.6 0.00 0.05 0.02 78 1013.7
20260507062004 64 63 0.0 0.0 0.00 0.05 0.02 80 1013.6
20260507061005 63 40 0.0 0.0 0.00 0.05 0.02 82 1013.6
20260507060505 62 40 0.0 0.0 0.00 0.05 0.02 83 1013.6
20260507060008 62 40 0.0 4.3 0.00 0.05 0.02 84 1013.6
20260507055506 61 43 0.0 5.2 0.00 0.05 0.02 85 1013.5
20260507053008 60 46 0.0 2.6 0.00 0.05 0.02 87 1013.4
20260507051505 59 40 0.0 0.0 0.00 0.06 0.02 89 1013.4
20260507050008 59 45 0.0 4.3 0.00 0.06 0.02 90 1013.3
20260507043505 58 52 0.9 6.1 0.00 0.06 0.02 90 1013.3
20260507042005 58 51 0.0 0.0 0.00 0.06 0.02 90 1013.3
20260507041005 58 28 7.8 13.0 0.00 0.06 0.02 90 1013.2
20260507040008 58 42 0.9 8.7 0.00 0.06 0.02 91 1013.2
20260507035004 58 49 2.6 6.1 0.00 0.06 0.02 91 1013.2
20260507033007 58 63 0.0 4.3 0.00 0.06 0.02 91 1013.3
20260507032004 58 42 0.0 4.3 0.00 0.06 0.02 91 1013.3
20260507030504 57 51 0.0 10.4 0.00 0.06 0.02 91 1013.3
20260507025505 57 28 7.0 15.6 0.00 0.06 0.02 91 1013.2